QPF
0.00 0.00 0.01 0.03 0.03 0.03 0.02 0.01 0.01 0.00 0.00 0.00 0.00 0.00 0.00 0.00 0.00 0.00 0.00 0.00 0.00 0.00 0.00 0.00 0.00 0.00 0.00 0.00 0.00 0.00 0.00 0.00 0.00 0.00 0.00 0.00 0.00 0.00 0.00 0.00 0.00 0.00 0.00 0.00
0.00 0.00 0.01 0.02 0.04 0.03 0.01 0.01 0.00 0.00 0.00 0.00 0.00 0.00 0.00 0.00 0.00 0.00 0.00 0.00 0.00 0.00 0.00 0.00 0.00 0.00 0.00 0.00 0.00 0.00 0.00 0.00 0.00 0.00 0.00 0.00 0.00 0.00 0.00 0.01 0.01 0.01 0.00 0.00
0.00 0.00 0.00 0.02 0.03 0.01 0.00 0.00 0.00 0.00 0.00 0.00 0.00 0.00 0.00 0.00 0.00 0.00 0.00 0.00 0.00 0.00 0.00 0.00 0.00 0.00 0.00 0.00 0.00 0.00 0.00 0.00 0.00 0.00 0.00 0.00 0.00 0.00 0.01 0.01 0.01 0.01 0.01 0.01
0.00 0.00 0.01 0.01 0.01 0.00 0.00 0.00 0.00 0.00 0.00 0.00 0.00 0.00 0.00 0.00 0.00 0.00 0.00 0.00 0.00 0.00 0.00 0.00 0.00 0.00 0.00 0.00 0.00 0.00 0.00 0.00 0.00 0.00 0.00 0.00 0.00 0.01 0.01 0.01 0.00 0.00 0.01 0.01
0.00 0.00 0.01 0.01 0.00 0.00 0.00 0.00 0.00 0.00 0.00 0.00 0.00 0.00 0.00 0.00 0.00 0.00 0.00 0.00 0.00 0.00 0.00 0.00 0.00 0.00 0.00 0.00 0.00 0.00 0.00 0.00 0.00 0.00 0.01 0.01 0.00 0.01 0.01 0.01 0.00 0.00 0.01 0.01
0.00 0.00 0.01 0.01 0.00 0.00 0.00 0.00 0.00 0.00 0.00 0.00 0.00 0.00 0.00 0.00 0.00 0.00 0.00 0.00 0.00 0.00 0.00 0.00 0.00 0.00 0.00 0.00 0.01 0.01 0.01 0.01 0.01 0.01 0.01 0.01 0.01 0.01 0.01 0.01 0.00 0.01 0.01 0.02
0.00 0.00 0.00 0.00 0.00 0.00 0.00 0.00 0.00 0.00 0.00 0.00 0.00 0.00 0.00 0.00 0.00 0.00 0.00 0.00 0.00 0.00 0.00 0.00 0.00 0.00 0.01 0.01 0.01 0.01 0.01 0.01 0.01 0.01 0.01 0.01 0.01 0.01 0.01 0.01 0.01 0.01 0.01 0.02
0.00 0.00 0.00 0.00 0.00 0.00 0.00 0.00 0.00 0.00 0.00 0.00 0.00 0.00 0.00 0.00 0.00 0.00 0.00 0.00 0.00 0.00 0.00 0.00 0.00 0.01 0.02 0.02 0.02 0.02 0.01 0.01 0.01 0.01 0.01 0.01 0.02 0.02 0.02 0.01 0.01 0.01 0.01 0.02
0.00 0.00 0.00 0.00 0.00 0.00 0.00 0.00 0.00 0.00 0.00 0.00 0.00 0.00 0.00 0.00 0.00 0.00 0.00 0.00 0.00 0.00 0.00 0.00 0.01 0.02 0.03 0.02 0.02 0.02 0.02 0.01 0.01 0.01 0.01 0.02 0.02 0.01 0.02 0.02 0.02 0.01 0.02 0.02
0.00 0.00 0.00 0.00 0.00 0.00 0.00 0.00 0.00 0.00 0.00 0.00 0.00 0.00 0.00 0.00 0.00 0.00 0.00 0.00 0.00 0.01 0.01 0.01 0.01 0.02 0.03 0.04 0.04 0.04 0.03 0.02 0.02 0.02 0.01 0.02 0.02 0.02 0.02 0.02 0.02 0.02 0.02 0.03
0.00 0.00 0.00 0.00 0.00 0.00 0.00 0.00 0.00 0.00 0.00 0.00 0.00 0.00 0.00 0.00 0.00 0.00 0.00 0.00 0.01 0.01 0.02 0.02 0.02 0.03 0.04 0.05 0.06 0.06 0.04 0.03 0.02 0.02 0.02 0.02 0.02 0.02 0.02 0.02 0.02 0.02 0.02 0.03
0.00 0.00 0.00 0.00 0.00 0.00 0.00 0.00 0.00 0.00 0.00 0.00 0.00 0.00 0.00 0.00 0.00 0.00 0.00 0.01 0.02 0.02 0.02 0.03 0.04 0.05 0.06 0.07 0.07 0.07 0.06 0.05 0.05 0.05 0.04 0.03 0.03 0.02 0.01 0.01 0.01 0.00 0.00 0.01
0.00 0.00 0.00 0.00 0.00 0.00 0.00 0.00 0.00 0.00 0.00 0.00 0.00 0.00 0.00 0.00 0.00 0.00 0.01 0.02 0.03 0.03 0.03 0.05 0.07 0.08 0.08 0.08 0.08 0.08 0.07 0.07 0.06 0.06 0.06 0.05 0.04 0.03 0.02 0.02 0.01 0.00 0.00 0.00
0.00 0.00 0.00 0.00 0.00 0.00 0.00 0.00 0.00 0.00 0.00 0.00 0.00 0.00 0.00 0.00 0.00 0.01 0.02 0.02 0.03 0.03 0.04 0.06 0.08 0.09 0.08 0.09 0.08 0.08 0.07 0.06 0.05 0.06 0.07 0.06 0.04 0.03 0.03 0.03 0.02 0.02 0.00 0.00
0.00 0.00 0.00 0.00 0.00 0.00 0.00 0.00 0.00 0.00 0.00 0.00 0.00 0.00 0.00 0.00 0.01 0.01 0.02 0.02 0.02 0.03 0.05 0.07 0.09 0.09 0.09 0.09 0.09 0.08 0.06 0.05 0.05 0.05 0.05 0.04 0.03 0.03 0.02 0.02 0.03 0.03 0.01 0.00
0.00 0.00 0.00 0.00 0.00 0.00 0.00 0.00 0.00 0.00 0.00 0.00 0.00 0.00 0.00 0.00 0.00 0.01 0.01 0.01 0.03 0.04 0.07 0.10 0.11 0.10 0.09 0.08 0.08 0.07 0.06 0.06 0.05 0.03 0.03 0.03 0.02 0.02 0.02 0.02 0.02 0.02 0.02 0.01
0.00 0.00 0.00 0.00 0.00 0.00 0.00 0.00 0.00 0.00 0.00 0.00 0.00 0.00 0.00 0.00 0.01 0.01 0.01 0.01 0.02 0.04 0.07 0.10 0.11 0.10 0.08 0.07 0.07 0.07 0.05 0.04 0.04 0.03 0.03 0.03 0.02 0.02 0.02 0.02 0.02 0.02 0.02 0.02
0.00 0.00 0.00 0.00 0.00 0.00 0.00 0.00 0.00 0.00 0.00 0.00 0.00 0.00 0.00 0.00 0.01 0.01 0.01 0.01 0.02 0.04 0.05 0.07 0.09 0.08 0.07 0.06 0.06 0.06 0.05 0.05 0.05 0.04 0.03 0.03 0.02 0.02 0.02 0.02 0.02 0.02 0.02 0.02
0.00 0.00 0.00 0.00 0.00 0.00 0.00 0.00 0.00 0.00 0.00 0.00 0.00 0.00 0.00 0.00 0.01 0.01 0.01 0.01 0.03 0.05 0.05 0.05 0.08 0.09 0.08 0.06 0.06 0.06 0.06 0.05 0.05 0.04 0.04 0.04 0.03 0.03 0.03 0.02 0.02 0.02 0.02 0.01
0.00 0.00 0.00 0.00 0.00 0.00 0.00 0.00 0.00 0.00 0.00 0.00 0.00 0.00 0.00 0.00 0.00 0.01 0.01 0.01 0.02 0.03 0.04 0.05 0.07 0.09 0.10 0.08 0.07 0.06 0.06 0.07 0.05 0.04 0.03 0.03 0.03 0.03 0.03 0.02 0.02 0.02 0.01 0.01
0.00 0.00 0.00 0.00 0.00 0.00 0.00 0.00 0.00 0.00 0.00 0.00 0.00 0.00 0.00 0.00 0.00 0.00 0.01 0.01 0.01 0.01 0.03 0.05 0.06 0.09 0.11 0.11 0.09 0.07 0.08 0.09 0.08 0.06 0.04 0.03 0.03 0.03 0.02 0.02 0.02 0.02 0.01 0.00
0.00 0.00 0.00 0.00 0.00 0.00 0.00 0.00 0.00 0.00 0.00 0.00 0.00 0.00 0.00 0.00 0.00 0.00 0.00 0.01 0.01 0.02 0.02 0.03 0.05 0.07 0.10 0.10 0.10 0.10 0.10 0.10 0.09 0.08 0.06 0.04 0.03 0.03 0.02 0.02 0.01 0.01 0.00 0.00
0.00 0.00 0.00 0.00 0.00 0.00 0.00 0.00 0.00 0.00 0.00 0.00 0.00 0.00 0.00 0.00 0.00 0.01 0.01 0.01 0.01 0.02 0.02 0.02 0.04 0.05 0.06 0.07 0.09 0.11 0.10 0.09 0.08 0.07 0.06 0.04 0.03 0.03 0.02 0.01 0.01 0.01 0.01 0.01
0.00 0.00 0.00 0.00 0.00 0.00 0.00 0.00 0.00 0.00 0.00 0.00 0.00 0.00 0.00 0.00 0.00 0.00 0.01 0.01 0.01 0.02 0.01 0.02 0.03 0.03 0.04 0.05 0.06 0.07 0.07 0.07 0.05 0.04 0.03 0.03 0.02 0.02 0.01 0.01 0.01 0.00 0.00 0.00
0.00 0.00 0.00 0.00 0.00 0.00 0.00 0.00 0.00 0.00 0.00 0.00 0.00 0.00 0.00 0.00 0.00 0.00 0.00 0.00 0.01 0.01 0.01 0.01 0.02 0.03 0.03 0.04 0.04 0.05 0.05 0.05 0.04 0.03 0.02 0.02 0.01 0.01 0.01 0.00 0.00 0.00 0.00 0.00
0.00 0.00 0.00 0.00 0.00 0.00 0.00 0.00 0.00 0.00 0.00 0.00 0.00 0.00 0.00 0.00 0.00 0.00 0.00 0.00 0.00 0.01 0.01 0.01 0.01 0.02 0.02 0.03 0.03 0.04 0.05 0.06 0.05 0.03 0.03 0.02 0.01 0.01 0.01 0.00 0.00 0.00 0.00 0.00
0.00 0.00 0.00 0.00 0.00 0.00 0.00 0.00 0.00 0.00 0.00 0.00 0.00 0.00 0.00 0.00 0.00 0.00 0.00 0.00 0.00 0.01 0.01 0.01 0.01 0.01 0.01 0.02 0.02 0.03 0.03 0.04 0.05 0.05 0.04 0.04 0.03 0.03 0.02 0.02 0.01 0.01 0.01 0.00
MSLP
1013.73 1014.03 1014.34 1014.65 1014.97 1015.25 1015.49 1015.66 1015.74 1015.71 1015.58 1015.35 1015.06 1014.71 1014.34 1013.96 1013.58 1013.22 1012.86 1012.50 1012.14 1011.76 1011.37 1010.96 1010.55 1010.16 1009.78 1009.43 1009.13 1008.87 1008.65 1008.47 1008.33 1008.23 1008.15 1008.10 1008.06 1008.05 1008.04 1008.05 1008.05 1008.05 1008.03 1007.98
1014.31 1014.67 1014.98 1015.25 1015.47 1015.63 1015.74 1015.78 1015.75 1015.66 1015.50 1015.28 1015.01 1014.69 1014.34 1013.96 1013.54 1013.09 1012.62 1012.13 1011.62 1011.10 1010.59 1010.09 1009.63 1009.19 1008.80 1008.46 1008.15 1007.89 1007.66 1007.46 1007.30 1007.16 1007.05 1006.97 1006.93 1006.93 1006.95 1006.99 1007.04 1007.09 1007.12 1007.12
1014.86 1015.24 1015.54 1015.76 1015.90 1015.96 1015.95 1015.88 1015.77 1015.62 1015.43 1015.20 1014.94 1014.64 1014.29 1013.88 1013.42 1012.90 1012.34 1011.73 1011.10 1010.48 1009.88 1009.31 1008.80 1008.35 1007.95 1007.61 1007.32 1007.05 1006.81 1006.59 1006.39 1006.22 1006.07 1005.97 1005.91 1005.90 1005.93 1006.00 1006.08 1006.16 1006.22 1006.25
1015.35 1015.71 1015.98 1016.14 1016.20 1016.17 1016.07 1015.91 1015.73 1015.52 1015.30 1015.06 1014.80 1014.49 1014.14 1013.72 1013.22 1012.66 1012.02 1011.35 1010.65 1009.95 1009.30 1008.70 1008.16 1007.70 1007.31 1006.97 1006.68 1006.41 1006.15 1005.90 1005.67 1005.45 1005.27 1005.13 1005.05 1005.03 1005.06 1005.13 1005.22 1005.31 1005.38 1005.40
1015.75 1016.06 1016.26 1016.35 1016.34 1016.23 1016.06 1015.83 1015.59 1015.33 1015.08 1014.82 1014.55 1014.25 1013.89 1013.46 1012.96 1012.37 1011.71 1011.01 1010.28 1009.56 1008.88 1008.27 1007.73 1007.26 1006.87 1006.53 1006.22 1005.93 1005.65 1005.37 1005.10 1004.84 1004.62 1004.46 1004.35 1004.31 1004.32 1004.38 1004.46 1004.54 1004.59 1004.59
1016.03 1016.25 1016.38 1016.40 1016.32 1016.15 1015.91 1015.64 1015.35 1015.06 1014.77 1014.50 1014.22 1013.92 1013.57 1013.15 1012.65 1012.08 1011.43 1010.73 1010.01 1009.29 1008.62 1008.00 1007.46 1006.99 1006.58 1006.22 1005.89 1005.57 1005.25 1004.93 1004.62 1004.33 1004.08 1003.88 1003.75 1003.69 1003.68 1003.73 1003.79 1003.84 1003.86 1003.82
1016.15 1016.27 1016.32 1016.28 1016.14 1015.93 1015.66 1015.35 1015.03 1014.71 1014.41 1014.13 1013.84 1013.54 1013.21 1012.81 1012.34 1011.79 1011.18 1010.51 1009.81 1009.12 1008.45 1007.84 1007.28 1006.79 1006.35 1005.96 1005.58 1005.22 1004.85 1004.49 1004.14 1003.82 1003.54 1003.32 1003.18 1003.10 1003.08 1003.10 1003.14 1003.17 1003.15 1003.08
1016.08 1016.12 1016.10 1016.00 1015.84 1015.60 1015.31 1014.99 1014.66 1014.34 1014.03 1013.74 1013.46 1013.17 1012.84 1012.47 1012.04 1011.53 1010.95 1010.32 1009.65 1008.97 1008.32 1007.69 1007.11 1006.58 1006.09 1005.64 1005.21 1004.79 1004.38 1003.97 1003.59 1003.24 1002.95 1002.72 1002.56 1002.48 1002.45 1002.46 1002.48 1002.49 1002.45 1002.35
1015.81 1015.78 1015.72 1015.61 1015.43 1015.20 1014.92 1014.61 1014.28 1013.96 1013.66 1013.37 1013.09 1012.81 1012.50 1012.15 1011.74 1011.27 1010.72 1010.12 1009.48 1008.81 1008.14 1007.49 1006.87 1006.29 1005.74 1005.21 1004.71 1004.23 1003.77 1003.33 1002.92 1002.56 1002.26 1002.03 1001.88 1001.79 1001.77 1001.77 1001.79 1001.79 1001.74 1001.63
1015.35 1015.29 1015.22 1015.11 1014.95 1014.75 1014.50 1014.22 1013.92 1013.62 1013.33 1013.04 1012.76 1012.48 1012.18 1011.85 1011.46 1011.00 1010.48 1009.89 1009.26 1008.58 1007.89 1007.20 1006.53 1005.87 1005.25 1004.65 1004.08 1003.54 1003.03 1002.56 1002.13 1001.77 1001.48 1001.26 1001.12 1001.05 1001.03 1001.05 1001.07 1001.08 1001.04 1000.95
1014.74 1014.69 1014.63 1014.56 1014.45 1014.29 1014.09 1013.86 1013.59 1013.32 1013.04 1012.76 1012.48 1012.20 1011.89 1011.56 1011.17 1010.72 1010.20 1009.61 1008.97 1008.27 1007.55 1006.81 1006.07 1005.35 1004.65 1003.99 1003.35 1002.76 1002.21 1001.72 1001.29 1000.93 1000.65 1000.46 1000.34 1000.29 1000.30 1000.33 1000.37 1000.40 1000.39 1000.33
1014.06 1014.04 1014.03 1014.00 1013.95 1013.86 1013.72 1013.53 1013.31 1013.06 1012.79 1012.52 1012.23 1011.94 1011.62 1011.27 1010.87 1010.41 1009.88 1009.28 1008.61 1007.89 1007.13 1006.34 1005.55 1004.77 1004.00 1003.28 1002.60 1001.97 1001.40 1000.89 1000.47 1000.12 999.87 999.70 999.61 999.59 999.62 999.68 999.75 999.81 999.84 999.83
1013.39 1013.41 1013.45 1013.49 1013.50 1013.47 1013.39 1013.25 1013.07 1012.84 1012.59 1012.31 1012.02 1011.70 1011.36 1010.99 1010.56 1010.08 1009.53 1008.91 1008.21 1007.46 1006.67 1005.84 1005.00 1004.17 1003.37 1002.60 1001.89 1001.24 1000.66 1000.16 999.74 999.42 999.19 999.05 998.99 999.00 999.07 999.16 999.27 999.37 999.44 999.49
1012.79 1012.86 1012.96 1013.05 1013.12 1013.15 1013.12 1013.03 1012.88 1012.67 1012.42 1012.14 1011.83 1011.49 1011.13 1010.72 1010.27 1009.76 1009.18 1008.53 1007.81 1007.03 1006.21 1005.35 1004.49 1003.63 1002.80 1002.01 1001.28 1000.62 1000.04 999.56 999.16 998.86 998.66 998.56 998.53 998.57 998.67 998.80 998.95 999.09 999.22 999.31
1012.31 1012.42 1012.56 1012.71 1012.83 1012.90 1012.91 1012.85 1012.72 1012.53 1012.29 1012.00 1011.67 1011.31 1010.92 1010.48 1009.99 1009.45 1008.84 1008.17 1007.43 1006.63 1005.78 1004.91 1004.03 1003.15 1002.31 1001.51 1000.78 1000.13 999.56 999.09 998.72 998.45 998.28 998.21 998.22 998.30 998.43 998.60 998.79 998.98 999.15 999.30
1011.94 1012.09 1012.27 1012.44 1012.59 1012.70 1012.73 1012.70 1012.59 1012.41 1012.17 1011.87 1011.53 1011.15 1010.73 1010.27 1009.75 1009.18 1008.55 1007.85 1007.08 1006.27 1005.41 1004.52 1003.63 1002.75 1001.90 1001.11 1000.38 999.74 999.19 998.74 998.39 998.15 998.01 997.97 998.02 998.14 998.31 998.52 998.76 998.99 999.21 999.40
1011.67 1011.84 1012.04 1012.23 1012.40 1012.52 1012.57 1012.55 1012.45 1012.28 1012.04 1011.75 1011.40 1011.01 1010.57 1010.09 1009.55 1008.95 1008.29 1007.57 1006.79 1005.96 1005.08 1004.19 1003.29 1002.40 1001.56 1000.76 1000.04 999.41 998.87 998.44 998.11 997.90 997.79 997.79 997.87 998.03 998.25 998.51 998.79 999.07 999.34 999.58
1011.46 1011.64 1011.84 1012.04 1012.21 1012.33 1012.38 1012.37 1012.28 1012.12 1011.90 1011.61 1011.27 1010.88 1010.43 1009.93 1009.38 1008.76 1008.08 1007.34 1006.54 1005.69 1004.80 1003.89 1002.98 1002.09 1001.24 1000.44 999.72 999.09 998.56 998.14 997.84 997.65 997.57 997.60 997.72 997.93 998.20 998.50 998.83 999.17 999.48 999.76
1011.24 1011.43 1011.63 1011.82 1011.98 1012.10 1012.15 1012.14 1012.06 1011.92 1011.71 1011.45 1011.12 1010.74 1010.30 1009.80 1009.23 1008.61 1007.91 1007.15 1006.33 1005.46 1004.56 1003.64 1002.71 1001.81 1000.94 1000.14 999.41 998.78 998.25 997.84 997.54 997.37 997.32 997.38 997.54 997.79 998.10 998.46 998.84 999.21 999.57 999.88
1011.01 1011.20 1011.39 1011.56 1011.71 1011.82 1011.87 1011.86 1011.80 1011.68 1011.49 1011.25 1010.95 1010.59 1010.16 1009.67 1009.12 1008.49 1007.78 1007.01 1006.18 1005.29 1004.37 1003.43 1002.49 1001.57 1000.69 999.87 999.14 998.50 997.97 997.55 997.26 997.10 997.07 997.15 997.34 997.62 997.96 998.36 998.78 999.19 999.58 999.93
1010.76 1010.94 1011.12 1011.28 1011.41 1011.51 1011.55 1011.55 1011.51 1011.40 1011.25 1011.04 1010.77 1010.44 1010.04 1009.57 1009.03 1008.40 1007.70 1006.93 1006.08 1005.19 1004.25 1003.30 1002.35 1001.42 1000.53 999.70 998.95 998.30 997.77 997.35 997.06 996.89 996.86 996.95 997.15 997.45 997.82 998.24 998.68 999.12 999.53 999.90
1010.49 1010.68 1010.85 1010.99 1011.11 1011.19 1011.24 1011.25 1011.22 1011.14 1011.02 1010.85 1010.62 1010.32 1009.96 1009.51 1008.99 1008.38 1007.68 1006.91 1006.07 1005.17 1004.24 1003.29 1002.33 1001.40 1000.51 999.68 998.93 998.27 997.73 997.30 997.00 996.83 996.79 996.87 997.06 997.35 997.72 998.14 998.58 999.02 999.44 999.82
1010.23 1010.42 1010.59 1010.73 1010.84 1010.92 1010.97 1010.99 1010.98 1010.93 1010.84 1010.71 1010.52 1010.26 1009.93 1009.51 1009.01 1008.42 1007.74 1006.99 1006.16 1005.28 1004.35 1003.41 1002.47 1001.55 1000.67 999.86 999.11 998.46 997.91 997.48 997.17 996.98 996.91 996.97 997.14 997.40 997.73 998.12 998.54 998.96 999.37 999.73
1009.97 1010.18 1010.35 1010.49 1010.61 1010.70 1010.76 1010.80 1010.81 1010.80 1010.75 1010.65 1010.50 1010.28 1009.98 1009.59 1009.12 1008.55 1007.90 1007.16 1006.36 1005.50 1004.61 1003.70 1002.79 1001.90 1001.05 1000.26 999.54 998.91 998.37 997.93 997.60 997.39 997.30 997.31 997.43 997.64 997.92 998.25 998.62 998.99 999.36 999.70
1009.70 1009.93 1010.12 1010.28 1010.42 1010.53 1010.62 1010.69 1010.73 1010.75 1010.74 1010.68 1010.57 1010.38 1010.11 1009.76 1009.31 1008.77 1008.15 1007.44 1006.67 1005.85 1005.00 1004.13 1003.27 1002.43 1001.63 1000.88 1000.20 999.60 999.08 998.65 998.31 998.08 997.95 997.91 997.97 998.11 998.31 998.57 998.86 999.17 999.48 999.77
1009.37 1009.63 1009.86 1010.05 1010.23 1010.38 1010.51 1010.62 1010.71 1010.78 1010.81 1010.80 1010.72 1010.57 1010.33 1010.00 1009.59 1009.07 1008.48 1007.80 1007.07 1006.29 1005.49 1004.68 1003.88 1003.11 1002.37 1001.69 1001.06 1000.50 1000.01 999.60 999.26 999.01 998.84 998.76 998.75 998.80 998.93 999.09 999.30 999.53 999.77 1000.00
1008.92 1009.22 1009.50 1009.75 1009.98 1010.19 1010.38 1010.56 1010.71 1010.84 1010.92 1010.95 1010.92 1010.80 1010.60 1010.30 1009.91 1009.43 1008.86 1008.22 1007.53 1006.80 1006.06 1005.32 1004.59 1003.88 1003.22 1002.61 1002.05 1001.55 1001.10 1000.72 1000.39 1000.13 999.94 999.80 999.73 999.71 999.75 999.83 999.95 1000.09 1000.26 1000.44
Thickness
5729 5733 5731 5722 5719 5716 5703 5694 5678 5675 5671 5666 5665 5661 5656 5650 5644 5639 5632 5626 5619 5611 5604 5597 5590 5584 5578 5573 5568 5563 5558 5553 5550 5548 5546 5545 5543 5543 5543 5544 5547 5550 5553 5557
5720 5730 5724 5713 5711 5708 5701 5693 5683 5675 5664 5666 5662 5656 5648 5641 5635 5628 5621 5615 5608 5600 5592 5585 5578 5573 5568 5564 5560 5556 5552 5549 5547 5544 5542 5541 5540 5539 5538 5538 5539 5539 5541 5544
5705 5718 5716 5690 5697 5695 5688 5683 5674 5659 5655 5657 5650 5645 5639 5632 5625 5616 5609 5603 5595 5588 5581 5574 5569 5565 5560 5557 5554 5550 5547 5545 5543 5541 5539 5538 5538 5537 5536 5535 5535 5535 5536 5537
5698 5698 5684 5690 5704 5697 5683 5672 5667 5660 5654 5649 5642 5638 5634 5625 5615 5607 5600 5594 5586 5579 5572 5567 5562 5557 5554 5550 5547 5544 5541 5539 5537 5536 5535 5534 5533 5532 5532 5531 5531 5531 5532 5534
5687 5683 5683 5690 5694 5689 5676 5664 5662 5654 5647 5643 5638 5630 5624 5619 5609 5598 5590 5582 5575 5568 5562 5557 5551 5547 5543 5539 5536 5533 5532 5530 5529 5528 5527 5526 5525 5525 5525 5525 5526 5526 5528 5530
5686 5679 5671 5678 5692 5694 5677 5655 5656 5648 5639 5632 5623 5605 5605 5606 5597 5588 5580 5572 5564 5558 5551 5544 5538 5533 5528 5525 5522 5520 5520 5519 5519 5518 5517 5517 5518 5518 5519 5519 5520 5522 5524 5525
5680 5674 5674 5683 5690 5681 5650 5642 5648 5642 5631 5622 5609 5601 5600 5597 5589 5580 5571 5562 5554 5545 5537 5530 5525 5519 5514 5510 5508 5507 5507 5506 5506 5506 5506 5507 5509 5510 5511 5513 5514 5516 5518 5521
5673 5663 5664 5684 5678 5659 5648 5648 5642 5635 5627 5618 5610 5604 5597 5589 5578 5569 5560 5552 5544 5534 5527 5520 5513 5506 5501 5498 5497 5495 5494 5494 5494 5494 5496 5500 5500 5502 5504 5506 5507 5510 5512 5515
5677 5670 5676 5678 5670 5663 5653 5644 5639 5631 5624 5615 5607 5598 5589 5579 5568 5559 5551 5542 5534 5525 5518 5511 5503 5495 5489 5488 5485 5483 5482 5482 5483 5484 5486 5488 5490 5493 5496 5499 5501 5505 5507 5510
5680 5679 5677 5672 5668 5662 5656 5648 5640 5632 5622 5612 5601 5592 5581 5570 5561 5552 5544 5536 5527 5518 5511 5504 5496 5489 5482 5480 5477 5474 5473 5473 5474 5475 5477 5480 5483 5487 5490 5494 5497 5500 5504 5507
5677 5679 5675 5670 5665 5660 5654 5645 5637 5628 5618 5607 5595 5584 5573 5563 5555 5547 5540 5531 5522 5512 5503 5497 5490 5484 5479 5475 5471 5468 5467 5467 5467 5469 5471 5474 5478 5482 5487 5491 5495 5498 5502 5505
5670 5672 5665 5661 5661 5658 5648 5639 5631 5621 5611 5601 5589 5578 5568 5558 5550 5543 5536 5528 5518 5509 5500 5494 5487 5482 5478 5473 5469 5466 5464 5464 5464 5465 5467 5470 5473 5478 5484 5488 5493 5497 5501 5504
5683 5679 5670 5666 5660 5653 5645 5636 5627 5617 5606 5595 5585 5575 5564 5555 5548 5541 5533 5525 5516 5507 5500 5493 5488 5483 5479 5475 5471 5467 5464 5463 5463 5464 5465 5468 5471 5475 5480 5485 5491 5495 5499 5502
5687 5680 5669 5663 5655 5649 5642 5633 5623 5613 5602 5592 5582 5572 5562 5554 5547 5540 5532 5524 5517 5509 5502 5496 5491 5486 5482 5477 5474 5470 5467 5466 5466 5466 5467 5469 5472 5476 5479 5484 5488 5491 5495 5500
5683 5676 5666 5661 5653 5645 5637 5628 5618 5607 5599 5590 5580 5569 5561 5554 5547 5540 5534 5527 5520 5512 5507 5501 5495 5491 5486 5482 5479 5475 5472 5470 5470 5470 5472 5473 5475 5478 5482 5486 5489 5491 5492 5494
5678 5671 5664 5656 5648 5640 5632 5623 5612 5603 5595 5586 5576 5567 5559 5553 5546 5541 5535 5529 5523 5517 5512 5506 5500 5496 5492 5489 5486 5483 5480 5480 5479 5477 5477 5478 5480 5482 5486 5489 5491 5494 5494 5495
5672 5664 5658 5650 5643 5635 5627 5618 5609 5601 5592 5583 5574 5566 5559 5553 5548 5543 5539 5533 5527 5522 5517 5511 5506 5502 5499 5496 5493 5491 5489 5487 5488 5484 5483 5484 5486 5488 5490 5493 5495 5498 5499 5499
5672 5664 5655 5648 5638 5630 5623 5615 5607 5599 5590 5582 5574 5566 5559 5553 5548 5545 5542 5537 5534 5531 5526 5519 5514 5511 5508 5505 5502 5500 5498 5496 5494 5492 5491 5492 5492 5494 5496 5498 5501 5502 5502 5502
5667 5659 5651 5644 5636 5628 5619 5612 5605 5597 5589 5581 5573 5565 5558 5553 5549 5546 5544 5541 5539 5537 5533 5528 5524 5521 5518 5516 5513 5510 5508 5506 5504 5502 5500 5501 5501 5502 5503 5504 5506 5507 5508 5508
5661 5654 5647 5640 5633 5625 5617 5611 5604 5596 5588 5580 5572 5565 5559 5555 5551 5548 5546 5544 5541 5538 5535 5534 5533 5532 5530 5527 5525 5522 5519 5516 5514 5512 5511 5510 5510 5510 5511 5512 5513 5513 5514 5515
5654 5648 5642 5635 5628 5622 5615 5608 5601 5593 5586 5579 5570 5564 5558 5554 5551 5549 5548 5549 5547 5544 5542 5542 5542 5541 5539 5538 5537 5534 5531 5528 5525 5522 5520 5519 5519 5519 5519 5520 5521 5521 5522 5523
5648 5642 5637 5630 5624 5617 5611 5604 5598 5591 5584 5577 5570 5563 5558 5554 5552 5550 5549 5547 5547 5546 5546 5549 5548 5547 5547 5549 5549 5547 5544 5541 5538 5534 5530 5529 5528 5527 5527 5528 5529 5530 5531 5533
5641 5636 5631 5626 5619 5613 5607 5600 5594 5588 5581 5574 5568 5561 5555 5551 5548 5548 5549 5549 5549 5548 5550 5552 5551 5552 5555 5558 5558 5556 5554 5552 5548 5544 5541 5539 5538 5537 5537 5538 5538 5539 5540 5542
5635 5630 5626 5621 5615 5608 5601 5595 5590 5583 5577 5571 5564 5559 5554 5550 5548 5546 5545 5548 5549 5550 5553 5553 5554 5557 5561 5563 5563 5563 5562 5560 5557 5554 5551 5549 5548 5547 5547 5547 5548 5549 5550 5552
5630 5625 5620 5615 5608 5601 5596 5591 5585 5579 5573 5566 5561 5556 5551 5547 5544 5544 5545 5547 5549 5551 5554 5556 5557 5559 5563 5565 5566 5566 5566 5566 5565 5564 5562 5559 5558 5557 5557 5557 5558 5558 5560 5561
5623 5618 5614 5609 5602 5596 5590 5585 5578 5572 5567 5561 5556 5552 5548 5545 5542 5541 5542 5544 5546 5548 5551 5553 5556 5558 5561 5563 5565 5566 5568 5569 5570 5570 5569 5568 5567 5567 5567 5567 5568 5568 5569 5570
5617 5612 5606 5601 5595 5590 5586 5580 5573 5567 5561 5556 5551 5546 5543 5540 5539 5538 5538 5539 5542 5544 5546 5548 5551 5553 5556 5558 5561 5562 5564 5566 5568 5570 5571 5572 5573 5573 5574 5574 5574 5575 5576 5576